RJFKRJFS

Guest
Details From RJFK - KAGOSHIMA
To RJFS - SAGA
Flight Number -
Tags generated
Created
Modified
Stats Distance 84 nm / 155 km
Max Altitude 9,900 ft / 3,018 m
Waypoints 3
Social Downloads 0
Likes 0
Share VATSIM

Download

Looking for another format? Having issues loading an existing format? Contact us
Advertisement - Login to hide

Notes

Basic altitude profile: - Ascent Rate: 2500ft/min - Ascent Speed: 250kts - Cruise Altitude: 35000ft - Cruise Speed: 420kts - Descent Rate: 1500ft/min - Descent Speed: 250kts Options: - Use NATs: yes - Use PACOTS: yes - Use low airways: yes - Use high airways: yes

Route

RJFK HINAG RJFS

ID Type Via Altitude Latitude Longitude Leg Dist Tot Dist Heading (true) Name
O RJFK APT - 0 ft / 0 m 31.80340˚ 130.71941˚ - 0 nm - KAGOSHIMA
HINAG FIX - 9,900 ft / 3,018 m 32.39507˚ 130.51492˚ 37 nm 37 nm 344° / 344° -
O RJFS APT - 0 ft / 0 m 33.14972˚ 130.30222˚ 46 nm 83 nm 347° / 347° SAGA

Altitude Profile

Advertisement - Login to hide

RJFK

Details ICAO RJFK (KOJ)
Name KAGOSHIMA
Region Japan
Timezone Asia/Tokyo (UTC+9.0)
Stats Elevation 906 ft / 276 m (AMSL)
Location 31.803400° 130.719405°
Runways 1
Magnetic Variation 6.945° W

METAR

RJFK 231100Z 30008KT 9999 FEW010 BKN015 19/17 Q1005

Decode

TAF

TAF RJFK 230517Z 2306/2412 30010KT 9999 FEW010 SCT020 BKN030 TEMPO 2306/2308 3000 -SHRA BR BECMG 2400/2403 22005KT BECMG 2406/2409 32008KT

Decode

Departure Runways

ID Width Length Bearing (true) Bearing (mag) Surface Threshold Offset Overrun Length
16 150 ft / 46 m 9,861 ft / 3,006 m 150.11° 157.06° Asphalt 0 ft / 0 m 200 ft / 61 m
34 150 ft / 46 m 9,861 ft / 3,006 m 330.11° 337.06° Asphalt 0 ft / 0 m 200 ft / 61 m

RJFS

Details ICAO RJFS (HSG)
Name SAGA
Region Japan
Timezone Asia/Tokyo (UTC+9.0)
Stats Elevation 5 ft / 2 m (AMSL)
Location 33.149718° 130.302221°
Runways 1
Magnetic Variation 7.347° W

METAR

RJFS 231100Z 32010KT 9999 FEW020 SCT030 20/17 Q1006

Decode

TAF

TAF RJFS 230506Z 2306/2412 27011KT 9999 FEW015 BECMG 2309/2311 34005KT

Decode

Destination Runways

ID Width Length Bearing (true) Bearing (mag) Surface Threshold Offset Overrun Length
11 148 ft / 45 m 6,550 ft / 1,997 m 99.29° 106.64° Asphalt 0 ft / 0 m 200 ft / 61 m
29 148 ft / 45 m 6,550 ft / 1,997 m 279.30° 286.65° Asphalt 0 ft / 0 m 200 ft / 61 m

Approach Navaids

Runway Type Ident Frequency Range Bearing (true) Bearing (mag) Slope Elevation
29 Localiser ISG 110.15 MHz 18 nm / 33 km 279.29° 286.64° - 6 ft / 2 m (AMSL)
29 Glidescope ISG 110.15 MHz 10 nm / 19 km 279.29° 286.64° 3.00° 23 ft / 7 m (AMSL)
29 DME ISG 110.15 MHz 18 nm / 33 km - - - 23 ft / 7 m (AMSL)